locationName,lineName,date,time,countIn,countOut
�����w�O,��������,2022/7/1,0:00,11,7
�����w�O,��������,2022/7/1,1:00,1,2
�����w�O,��������,2022/7/1,2:00,12,6
�����w�O,��������,2022/7/1,3:00,1,3
�����w�O,��������,2022/7/1,4:00,3,3
�����w�O,��������,2022/7/1,5:00,7,11
�����w�O,��������,2022/7/1,6:00,95,77
�����w�O,��������,2022/7/1,7:00,231,335
�����w�O,��������,2022/7/1,8:00,121,257
�����w�O,��������,2022/7/1,9:00,108,98
�����w�O,��������,2022/7/1,10:00,134,125
�����w�O,��������,2022/7/1,11:00,136,160
�����w�O,��������,2022/7/1,12:00,166,142
�����w�O,��������,2022/7/1,13:00,271,187
�����w�O,��������,2022/7/1,14:00,168,111
�����w�O,��������,2022/7/1,15:00,231,125
�����w�O,��������,2022/7/1,16:00,259,191
�����w�O,��������,2022/7/1,17:00,305,274
�����w�O,��������,2022/7/1,18:00,233,204
�����w�O,��������,2022/7/1,19:00,171,214
�����w�O,��������,2022/7/1,20:00,149,110
�����w�O,��������,2022/7/1,21:00,136,87
�����w�O,��������,2022/7/1,22:00,92,79
�����w�O,��������,2022/7/1,23:00,40,36
�����w�O,��������,2022/7/2,0:00,5,3
�����w�O,��������,2022/7/2,1:00,12,5
�����w�O,��������,2022/7/2,2:00,2,1
�����w�O,��������,2022/7/2,3:00,4,3
�����w�O,��������,2022/7/2,4:00,3,1
�����w�O,��������,2022/7/2,5:00,19,14
�����w�O,��������,2022/7/2,6:00,45,34
�����w�O,��������,2022/7/2,7:00,94,239
�����w�O,��������,2022/7/2,8:00,96,176
�����w�O,��������,2022/7/2,9:00,139,195
�����w�O,��������,2022/7/2,10:00,179,204
�����w�O,��������,2022/7/2,11:00,167,258
�����w�O,��������,2022/7/2,12:00,206,225
�����w�O,��������,2022/7/2,13:00,353,219
�����w�O,��������,2022/7/2,14:00,260,166
�����w�O,��������,2022/7/2,15:00,306,180
�����w�O,��������,2022/7/2,16:00,223,195
�����w�O,��������,2022/7/2,17:00,246,235
�����w�O,��������,2022/7/2,18:00,293,256
�����w�O,��������,2022/7/2,19:00,135,147
�����w�O,��������,2022/7/2,20:00,151,122
�����w�O,��������,2022/7/2,21:00,154,109
�����w�O,��������,2022/7/2,22:00,85,40
�����w�O,��������,2022/7/2,23:00,43,30
�����w�O,��������,2022/7/3,0:00,15,11
�����w�O,��������,2022/7/3,1:00,7,2
�����w�O,��������,2022/7/3,2:00,2,0
�����w�O,��������,2022/7/3,3:00,3,3
�����w�O,��������,2022/7/3,4:00,2,3
�����w�O,��������,2022/7/3,5:00,15,12
�����w�O,��������,2022/7/3,6:00,47,35
�����w�O,��������,2022/7/3,7:00,81,86
�����w�O,��������,2022/7/3,8:00,114,138
�����w�O,��������,2022/7/3,9:00,121,146
�����w�O,��������,2022/7/3,10:00,151,177
�����w�O,��������,2022/7/3,11:00,210,254
�����w�O,��������,2022/7/3,12:00,237,268
�����w�O,��������,2022/7/3,13:00,279,237
�����w�O,��������,2022/7/3,14:00,230,202
�����w�O,��������,2022/7/3,15:00,289,228
�����w�O,��������,2022/7/3,16:00,351,623
�����w�O,��������,2022/7/3,17:00,371,596
�����w�O,��������,2022/7/3,18:00,295,432
�����w�O,��������,2022/7/3,19:00,119,164
�����w�O,��������,2022/7/3,20:00,69,76
�����w�O,��������,2022/7/3,21:00,121,117
�����w�O,��������,2022/7/3,22:00,39,23
�����w�O,��������,2022/7/3,23:00,7,5
�����w�O,��������,2022/7/4,0:00,2,3
�����w�O,��������,2022/7/4,1:00,2,1
�����w�O,��������,2022/7/4,2:00,1,0
�����w�O,��������,2022/7/4,3:00,4,1
�����w�O,��������,2022/7/4,4:00,3,3
�����w�O,��������,2022/7/4,5:00,9,6
�����w�O,��������,2022/7/4,6:00,90,69
�����w�O,��������,2022/7/4,7:00,209,403
�����w�O,��������,2022/7/4,8:00,94,226
�����w�O,��������,2022/7/4,9:00,107,106
�����w�O,��������,2022/7/4,10:00,115,91
�����w�O,��������,2022/7/4,11:00,188,135
�����w�O,��������,2022/7/4,12:00,189,138
�����w�O,��������,2022/7/4,13:00,171,179
�����w�O,��������,2022/7/4,14:00,151,140
�����w�O,��������,2022/7/4,15:00,149,105
�����w�O,��������,2022/7/4,16:00,223,160
�����w�O,��������,2022/7/4,17:00,228,165
�����w�O,��������,2022/7/4,18:00,291,155
�����w�O,��������,2022/7/4,19:00,117,138
�����w�O,��������,2022/7/4,20:00,66,72
�����w�O,��������,2022/7/4,21:00,61,54
�����w�O,��������,2022/7/4,22:00,19,24
�����w�O,��������,2022/7/4,23:00,12,9
�����w�O,��������,2022/7/5,0:00,6,11
�����w�O,��������,2022/7/5,1:00,5,0
�����w�O,��������,2022/7/5,2:00,2,0
�����w�O,��������,2022/7/5,3:00,1,3
�����w�O,��������,2022/7/5,4:00,2,1
�����w�O,��������,2022/7/5,5:00,5,7
�����w�O,��������,2022/7/5,6:00,88,63
�����w�O,��������,2022/7/5,7:00,214,382
�����w�O,��������,2022/7/5,8:00,140,251
�����w�O,��������,2022/7/5,9:00,106,106
�����w�O,��������,2022/7/5,10:00,117,110
�����w�O,��������,2022/7/5,11:00,247,125
�����w�O,��������,2022/7/5,12:00,133,145
�����w�O,��������,2022/7/5,13:00,130,113
�����w�O,��������,2022/7/5,14:00,99,109
�����w�O,��������,2022/7/5,15:00,171,141
�����w�O,��������,2022/7/5,16:00,157,161
�����w�O,��������,2022/7/5,17:00,275,188
�����w�O,��������,2022/7/5,18:00,252,176
�����w�O,��������,2022/7/5,19:00,124,157
�����w�O,��������,2022/7/5,20:00,120,126
�����w�O,��������,2022/7/5,21:00,72,58
�����w�O,��������,2022/7/5,22:00,42,29
�����w�O,��������,2022/7/5,23:00,8,5
�����w�O,��������,2022/7/6,0:00,5,2
�����w�O,��������,2022/7/6,1:00,1,1
�����w�O,��������,2022/7/6,2:00,2,1
�����w�O,��������,2022/7/6,3:00,0,0
�����w�O,��������,2022/7/6,4:00,2,2
�����w�O,��������,2022/7/6,5:00,7,9
�����w�O,��������,2022/7/6,6:00,89,56
�����w�O,��������,2022/7/6,7:00,225,352
�����w�O,��������,2022/7/6,8:00,147,247
�����w�O,��������,2022/7/6,9:00,98,93
�����w�O,��������,2022/7/6,10:00,155,109
�����w�O,��������,2022/7/6,11:00,185,120
�����w�O,��������,2022/7/6,12:00,172,127
�����w�O,��������,2022/7/6,13:00,253,177
�����w�O,��������,2022/7/6,14:00,123,136
�����w�O,��������,2022/7/6,15:00,150,127
�����w�O,��������,2022/7/6,16:00,216,139
�����w�O,��������,2022/7/6,17:00,295,285
�����w�O,��������,2022/7/6,18:00,218,196
�����w�O,��������,2022/7/6,19:00,101,143
�����w�O,��������,2022/7/6,20:00,230,282
�����w�O,��������,2022/7/6,21:00,71,48
�����w�O,��������,2022/7/6,22:00,57,25
�����w�O,��������,2022/7/6,23:00,25,10
�����w�O,��������,2022/7/7,0:00,10,2
�����w�O,��������,2022/7/7,1:00,2,0
�����w�O,��������,2022/7/7,2:00,2,2
�����w�O,��������,2022/7/7,3:00,0,0
�����w�O,��������,2022/7/7,4:00,5,2
�����w�O,��������,2022/7/7,5:00,13,10
�����w�O,��������,2022/7/7,6:00,85,74
�����w�O,��������,2022/7/7,7:00,182,318
�����w�O,��������,2022/7/7,8:00,73,60
�����w�O,��������,2022/7/7,9:00,108,111
�����w�O,��������,2022/7/7,10:00,140,113
�����w�O,��������,2022/7/7,11:00,174,118
�����w�O,��������,2022/7/7,12:00,223,155
�����w�O,��������,2022/7/7,13:00,148,160
�����w�O,��������,2022/7/7,14:00,170,139
�����w�O,��������,2022/7/7,15:00,181,133
�����w�O,��������,2022/7/7,16:00,145,129
�����w�O,��������,2022/7/7,17:00,212,142
�����w�O,��������,2022/7/7,18:00,207,151
�����w�O,��������,2022/7/7,19:00,155,165
�����w�O,��������,2022/7/7,20:00,82,66
�����w�O,��������,2022/7/7,21:00,69,68
�����w�O,��������,2022/7/7,22:00,43,40
�����w�O,��������,2022/7/7,23:00,14,5
�����w�O,��������,2022/7/8,0:00,10,2
�����w�O,��������,2022/7/8,1:00,1,0
�����w�O,��������,2022/7/8,2:00,0,1
�����w�O,��������,2022/7/8,3:00,2,2
�����w�O,��������,2022/7/8,4:00,0,0
�����w�O,��������,2022/7/8,5:00,9,12
�����w�O,��������,2022/7/8,6:00,92,57
�����w�O,��������,2022/7/8,7:00,199,365
�����w�O,��������,2022/7/8,8:00,94,202
�����w�O,��������,2022/7/8,9:00,134,139
�����w�O,��������,2022/7/8,10:00,186,232
�����w�O,��������,2022/7/8,11:00,290,424
�����w�O,��������,2022/7/8,12:00,223,157
�����w�O,��������,2022/7/8,13:00,138,147
�����w�O,��������,2022/7/8,14:00,176,141
�����w�O,��������,2022/7/8,15:00,200,143
�����w�O,��������,2022/7/8,16:00,247,166
�����w�O,��������,2022/7/8,17:00,336,193
�����w�O,��������,2022/7/8,18:00,259,198
�����w�O,��������,2022/7/8,19:00,154,156
�����w�O,��������,2022/7/8,20:00,67,57
�����w�O,��������,2022/7/8,21:00,81,55
�����w�O,��������,2022/7/8,22:00,81,42
�����w�O,��������,2022/7/8,23:00,46,20
�����w�O,��������,2022/7/9,0:00,21,5
�����w�O,��������,2022/7/9,1:00,12,4
�����w�O,��������,2022/7/9,2:00,5,2
�����w�O,��������,2022/7/9,3:00,6,6
�����w�O,��������,2022/7/9,4:00,1,1
�����w�O,��������,2022/7/9,5:00,9,8
�����w�O,��������,2022/7/9,6:00,38,25
�����w�O,��������,2022/7/9,7:00,96,75
�����w�O,��������,2022/7/9,8:00,104,180
�����w�O,��������,2022/7/9,9:00,128,176
�����w�O,��������,2022/7/9,10:00,181,223
�����w�O,��������,2022/7/9,11:00,166,284
�����w�O,��������,2022/7/9,12:00,290,277
�����w�O,��������,2022/7/9,13:00,350,249
�����w�O,��������,2022/7/9,14:00,251,220
�����w�O,��������,2022/7/9,15:00,261,196
�����w�O,��������,2022/7/9,16:00,264,181
�����w�O,��������,2022/7/9,17:00,229,231
�����w�O,��������,2022/7/9,18:00,182,195
�����w�O,��������,2022/7/9,19:00,181,200
�����w�O,��������,2022/7/9,20:00,145,101
�����w�O,��������,2022/7/9,21:00,137,99
�����w�O,��������,2022/7/9,22:00,68,40
�����w�O,��������,2022/7/9,23:00,55,18
�����w�O,��������,2022/7/10,0:00,13,8
�����w�O,��������,2022/7/10,1:00,7,1
�����w�O,��������,2022/7/10,2:00,2,1
�����w�O,��������,2022/7/10,3:00,4,3
�����w�O,��������,2022/7/10,4:00,1,1
�����w�O,��������,2022/7/10,5:00,18,13
�����w�O,��������,2022/7/10,6:00,40,21
�����w�O,��������,2022/7/10,7:00,67,85
�����w�O,��������,2022/7/10,8:00,110,170
�����w�O,��������,2022/7/10,9:00,149,158
�����w�O,��������,2022/7/10,10:00,190,237
�����w�O,��������,2022/7/10,11:00,216,328
�����w�O,��������,2022/7/10,12:00,211,272
�����w�O,��������,2022/7/10,13:00,271,215
�����w�O,��������,2022/7/10,14:00,250,187
�����w�O,��������,2022/7/10,15:00,296,192
�����w�O,��������,2022/7/10,16:00,236,176
�����w�O,��������,2022/7/10,17:00,240,155
�����w�O,��������,2022/7/10,18:00,129,152
�����w�O,��������,2022/7/10,19:00,120,120
�����w�O,��������,2022/7/10,20:00,96,98
�����w�O,��������,2022/7/10,21:00,74,61
�����w�O,��������,2022/7/10,22:00,31,23
�����w�O,��������,2022/7/10,23:00,12,16
�����w�O,��������,2022/7/11,0:00,7,1
�����w�O,��������,2022/7/11,1:00,0,4
�����w�O,��������,2022/7/11,2:00,1,0
�����w�O,��������,2022/7/11,3:00,1,2
�����w�O,��������,2022/7/11,4:00,4,0
�����w�O,��������,2022/7/11,5:00,10,10
�����w�O,��������,2022/7/11,6:00,85,51
�����w�O,��������,2022/7/11,7:00,185,324
�����w�O,��������,2022/7/11,8:00,111,255
�����w�O,��������,2022/7/11,9:00,126,117
�����w�O,��������,2022/7/11,10:00,131,125
�����w�O,��������,2022/7/11,11:00,171,178
�����w�O,��������,2022/7/11,12:00,173,146
�����w�O,��������,2022/7/11,13:00,142,143
�����w�O,��������,2022/7/11,14:00,138,125
�����w�O,��������,2022/7/11,15:00,207,105
�����w�O,��������,2022/7/11,16:00,258,156
�����w�O,��������,2022/7/11,17:00,249,182
�����w�O,��������,2022/7/11,18:00,285,170
�����w�O,��������,2022/7/11,19:00,147,165
�����w�O,��������,2022/7/11,20:00,95,89
�����w�O,��������,2022/7/11,21:00,46,45
�����w�O,��������,2022/7/11,22:00,26,24
�����w�O,��������,2022/7/11,23:00,115,114
�����w�O,��������,2022/7/12,0:00,25,23
�����w�O,��������,2022/7/12,1:00,2,0
�����w�O,��������,2022/7/12,2:00,4,0
�����w�O,��������,2022/7/12,3:00,1,0
�����w�O,��������,2022/7/12,4:00,1,1
�����w�O,��������,2022/7/12,5:00,9,4
�����w�O,��������,2022/7/12,6:00,100,59
�����w�O,��������,2022/7/12,7:00,196,321
�����w�O,��������,2022/7/12,8:00,109,249
�����w�O,��������,2022/7/12,9:00,87,94
�����w�O,��������,2022/7/12,10:00,111,110
�����w�O,��������,2022/7/12,11:00,132,135
�����w�O,��������,2022/7/12,12:00,156,128
�����w�O,��������,2022/7/12,13:00,125,131
�����w�O,��������,2022/7/12,14:00,162,113
�����w�O,��������,2022/7/12,15:00,193,99
�����w�O,��������,2022/7/12,16:00,200,141
�����w�O,��������,2022/7/12,17:00,271,182
�����w�O,��������,2022/7/12,18:00,290,170
�����w�O,��������,2022/7/12,19:00,214,204
�����w�O,��������,2022/7/12,20:00,152,142
�����w�O,��������,2022/7/12,21:00,72,43
�����w�O,��������,2022/7/12,22:00,32,27
�����w�O,��������,2022/7/12,23:00,32,15
�����w�O,��������,2022/7/13,0:00,8,3
�����w�O,��������,2022/7/13,1:00,0,1
�����w�O,��������,2022/7/13,2:00,0,0
�����w�O,��������,2022/7/13,3:00,1,0
�����w�O,��������,2022/7/13,4:00,2,1
�����w�O,��������,2022/7/13,5:00,14,10
�����w�O,��������,2022/7/13,6:00,73,58
�����w�O,��������,2022/7/13,7:00,223,310
�����w�O,��������,2022/7/13,8:00,132,282
�����w�O,��������,2022/7/13,9:00,105,98
�����w�O,��������,2022/7/13,10:00,136,121
�����w�O,��������,2022/7/13,11:00,138,154
�����w�O,��������,2022/7/13,12:00,163,181
�����w�O,��������,2022/7/13,13:00,180,97
�����w�O,��������,2022/7/13,14:00,125,129
�����w�O,��������,2022/7/13,15:00,190,124
�����w�O,��������,2022/7/13,16:00,250,181
�����w�O,��������,2022/7/13,17:00,333,209
�����w�O,��������,2022/7/13,18:00,238,232
�����w�O,��������,2022/7/13,19:00,198,209
�����w�O,��������,2022/7/13,20:00,117,92
�����w�O,��������,2022/7/13,21:00,73,60
�����w�O,��������,2022/7/13,22:00,51,30
�����w�O,��������,2022/7/13,23:00,21,10
�����w�O,��������,2022/7/14,0:00,14,6
�����w�O,��������,2022/7/14,1:00,4,0
�����w�O,��������,2022/7/14,2:00,4,4
�����w�O,��������,2022/7/14,3:00,2,5
�����w�O,��������,2022/7/14,4:00,1,0
�����w�O,��������,2022/7/14,5:00,9,10
�����w�O,��������,2022/7/14,6:00,79,47
�����w�O,��������,2022/7/14,7:00,157,309
�����w�O,��������,2022/7/14,8:00,109,210
�����w�O,��������,2022/7/14,9:00,90,137
�����w�O,��������,2022/7/14,10:00,120,114
�����w�O,��������,2022/7/14,11:00,117,160
�����w�O,��������,2022/7/14,12:00,184,167
�����w�O,��������,2022/7/14,13:00,131,107
�����w�O,��������,2022/7/14,14:00,141,100
�����w�O,��������,2022/7/14,15:00,172,105
�����w�O,��������,2022/7/14,16:00,224,136
�����w�O,��������,2022/7/14,17:00,272,189
�����w�O,��������,2022/7/14,18:00,285,155
�����w�O,��������,2022/7/14,19:00,147,144
�����w�O,��������,2022/7/14,20:00,104,96
�����w�O,��������,2022/7/14,21:00,88,66
�����w�O,��������,2022/7/14,22:00,59,35
�����w�O,��������,2022/7/14,23:00,26,13
�����w�O,��������,2022/7/15,0:00,12,8
�����w�O,��������,2022/7/15,1:00,14,17
�����w�O,��������,2022/7/15,2:00,3,4
�����w�O,��������,2022/7/15,3:00,2,1
�����w�O,��������,2022/7/15,4:00,2,0
�����w�O,��������,2022/7/15,5:00,11,15
�����w�O,��������,2022/7/15,6:00,83,67
�����w�O,��������,2022/7/15,7:00,187,313
�����w�O,��������,2022/7/15,8:00,167,300
�����w�O,��������,2022/7/15,9:00,99,109
�����w�O,��������,2022/7/15,10:00,152,134
�����w�O,��������,2022/7/15,11:00,137,154
�����w�O,��������,2022/7/15,12:00,182,196
�����w�O,��������,2022/7/15,13:00,151,141
�����w�O,��������,2022/7/15,14:00,134,131
�����w�O,��������,2022/7/15,15:00,217,154
�����w�O,��������,2022/7/15,16:00,290,233
�����w�O,��������,2022/7/15,17:00,329,232
�����w�O,��������,2022/7/15,18:00,336,235
�����w�O,��������,2022/7/15,19:00,234,261
�����w�O,��������,2022/7/15,20:00,188,173
�����w�O,��������,2022/7/15,21:00,97,82
�����w�O,��������,2022/7/15,22:00,92,56
�����w�O,��������,2022/7/15,23:00,59,24
�����w�O,��������,2022/7/16,0:00,10,4
�����w�O,��������,2022/7/16,1:00,12,3
�����w�O,��������,2022/7/16,2:00,4,3
�����w�O,��������,2022/7/16,3:00,4,2
�����w�O,��������,2022/7/16,4:00,2,0
�����w�O,��������,2022/7/16,5:00,16,14
�����w�O,��������,2022/7/16,6:00,53,43
�����w�O,��������,2022/7/16,7:00,110,257
�����w�O,��������,2022/7/16,8:00,140,197
�����w�O,��������,2022/7/16,9:00,203,235
�����w�O,��������,2022/7/16,10:00,326,433
�����w�O,��������,2022/7/16,11:00,293,432
�����w�O,��������,2022/7/16,12:00,300,381
�����w�O,��������,2022/7/16,13:00,332,271
�����w�O,��������,2022/7/16,14:00,310,323
�����w�O,��������,2022/7/16,15:00,363,248
�����w�O,��������,2022/7/16,16:00,280,224
�����w�O,��������,2022/7/16,17:00,342,240
�����w�O,��������,2022/7/16,18:00,251,300
�����w�O,��������,2022/7/16,19:00,187,216
�����w�O,��������,2022/7/16,20:00,157,96
�����w�O,��������,2022/7/16,21:00,124,101
�����w�O,��������,2022/7/16,22:00,78,42
�����w�O,��������,2022/7/16,23:00,48,30
�����w�O,��������,2022/7/17,0:00,10,5
�����w�O,��������,2022/7/17,1:00,3,2
�����w�O,��������,2022/7/17,2:00,2,0
�����w�O,��������,2022/7/17,3:00,4,3
�����w�O,��������,2022/7/17,4:00,4,5
�����w�O,��������,2022/7/17,5:00,16,19
�����w�O,��������,2022/7/17,6:00,47,39
�����w�O,��������,2022/7/17,7:00,95,129
�����w�O,��������,2022/7/17,8:00,146,196
�����w�O,��������,2022/7/17,9:00,166,249
�����w�O,��������,2022/7/17,10:00,281,507
�����w�O,��������,2022/7/17,11:00,270,415
�����w�O,��������,2022/7/17,12:00,372,505
�����w�O,��������,2022/7/17,13:00,394,323
�����w�O,��������,2022/7/17,14:00,462,353
�����w�O,��������,2022/7/17,15:00,424,391
�����w�O,��������,2022/7/17,16:00,395,333
�����w�O,��������,2022/7/17,17:00,366,262
�����w�O,��������,2022/7/17,18:00,335,272
�����w�O,��������,2022/7/17,19:00,236,211
�����w�O,��������,2022/7/17,20:00,185,127
�����w�O,��������,2022/7/17,21:00,127,70
�����w�O,��������,2022/7/17,22:00,75,54
�����w�O,��������,2022/7/17,23:00,32,21
�����w�O,��������,2022/7/18,0:00,18,2
�����w�O,��������,2022/7/18,1:00,3,2
�����w�O,��������,2022/7/18,2:00,3,1
�����w�O,��������,2022/7/18,3:00,1,2
�����w�O,��������,2022/7/18,4:00,11,4
�����w�O,��������,2022/7/18,5:00,69,82
�����w�O,��������,2022/7/18,6:00,96,72
�����w�O,��������,2022/7/18,7:00,100,110
�����w�O,��������,2022/7/18,8:00,106,114
�����w�O,��������,2022/7/18,9:00,142,189
�����w�O,��������,2022/7/18,10:00,258,299
�����w�O,��������,2022/7/18,11:00,247,300
�����w�O,��������,2022/7/18,12:00,293,313
�����w�O,��������,2022/7/18,13:00,307,241
�����w�O,��������,2022/7/18,14:00,328,230
�����w�O,��������,2022/7/18,15:00,337,169
�����w�O,��������,2022/7/18,16:00,306,222
�����w�O,��������,2022/7/18,17:00,292,186
�����w�O,��������,2022/7/18,18:00,147,118
�����w�O,��������,2022/7/18,19:00,56,80
�����w�O,��������,2022/7/18,20:00,64,53
�����w�O,��������,2022/7/18,21:00,32,37
�����w�O,��������,2022/7/18,22:00,17,17
�����w�O,��������,2022/7/18,23:00,9,4
�����w�O,��������,2022/7/19,0:00,5,2
�����w�O,��������,2022/7/19,1:00,0,1
�����w�O,��������,2022/7/19,2:00,0,0
�����w�O,��������,2022/7/19,3:00,0,0
�����w�O,��������,2022/7/19,4:00,6,2
�����w�O,��������,2022/7/19,5:00,4,2
�����w�O,��������,2022/7/19,6:00,79,57
�����w�O,��������,2022/7/19,7:00,178,292
�����w�O,��������,2022/7/19,8:00,115,246
�����w�O,��������,2022/7/19,9:00,124,100
�����w�O,��������,2022/7/19,10:00,103,105
�����w�O,��������,2022/7/19,11:00,106,103
�����w�O,��������,2022/7/19,12:00,118,110
�����w�O,��������,2022/7/19,13:00,124,93
�����w�O,��������,2022/7/19,14:00,96,90
�����w�O,��������,2022/7/19,15:00,195,97
�����w�O,��������,2022/7/19,16:00,218,125
�����w�O,��������,2022/7/19,17:00,308,170
�����w�O,��������,2022/7/19,18:00,261,171
�����w�O,��������,2022/7/19,19:00,158,138
�����w�O,��������,2022/7/19,20:00,72,64
�����w�O,��������,2022/7/19,21:00,92,75
�����w�O,��������,2022/7/19,22:00,60,37
�����w�O,��������,2022/7/19,23:00,16,7
�����w�O,��������,2022/7/20,0:00,4,6
�����w�O,��������,2022/7/20,1:00,4,1
�����w�O,��������,2022/7/20,2:00,1,1
�����w�O,��������,2022/7/20,3:00,0,0
�����w�O,��������,2022/7/20,4:00,6,2
�����w�O,��������,2022/7/20,5:00,9,14
�����w�O,��������,2022/7/20,6:00,100,76
�����w�O,��������,2022/7/20,7:00,200,317
�����w�O,��������,2022/7/20,8:00,123,259
�����w�O,��������,2022/7/20,9:00,111,135
�����w�O,��������,2022/7/20,10:00,135,123
�����w�O,��������,2022/7/20,11:00,142,149
�����w�O,��������,2022/7/20,12:00,207,166
�����w�O,��������,2022/7/20,13:00,223,170
�����w�O,��������,2022/7/20,14:00,189,146
�����w�O,��������,2022/7/20,15:00,221,138
�����w�O,��������,2022/7/20,16:00,222,181
�����w�O,��������,2022/7/20,17:00,261,161
�����w�O,��������,2022/7/20,18:00,238,171
�����w�O,��������,2022/7/20,19:00,171,167
�����w�O,��������,2022/7/20,20:00,109,91
�����w�O,��������,2022/7/20,21:00,97,87
�����w�O,��������,2022/7/20,22:00,65,52
�����w�O,��������,2022/7/20,23:00,18,2
�����w�O,��������,2022/7/21,0:00,5,3
�����w�O,��������,2022/7/21,1:00,2,0
�����w�O,��������,2022/7/21,2:00,1,0
�����w�O,��������,2022/7/21,3:00,1,1
�����w�O,��������,2022/7/21,4:00,3,1
�����w�O,��������,2022/7/21,5:00,13,7
�����w�O,��������,2022/7/21,6:00,76,51
�����w�O,��������,2022/7/21,7:00,171,243
�����w�O,��������,2022/7/21,8:00,102,247
�����w�O,��������,2022/7/21,9:00,96,108
�����w�O,��������,2022/7/21,10:00,120,125
�����w�O,��������,2022/7/21,11:00,143,160
�����w�O,��������,2022/7/21,12:00,149,161
�����w�O,��������,2022/7/21,13:00,107,97
�����w�O,��������,2022/7/21,14:00,142,121
�����w�O,��������,2022/7/21,15:00,266,150
�����w�O,��������,2022/7/21,16:00,155,120
�����w�O,��������,2022/7/21,17:00,176,141
�����w�O,��������,2022/7/21,18:00,221,162
�����w�O,��������,2022/7/21,19:00,170,160
�����w�O,��������,2022/7/21,20:00,102,71
�����w�O,��������,2022/7/21,21:00,58,44
�����w�O,��������,2022/7/21,22:00,37,29
�����w�O,��������,2022/7/21,23:00,9,7
�����w�O,��������,2022/7/22,0:00,1,1
�����w�O,��������,2022/7/22,1:00,1,0
�����w�O,��������,2022/7/22,2:00,2,3
�����w�O,��������,2022/7/22,3:00,1,2
�����w�O,��������,2022/7/22,4:00,3,0
�����w�O,��������,2022/7/22,5:00,13,13
�����w�O,��������,2022/7/22,6:00,99,51
�����w�O,��������,2022/7/22,7:00,168,168
�����w�O,��������,2022/7/22,8:00,108,75
�����w�O,��������,2022/7/22,9:00,124,220
�����w�O,��������,2022/7/22,10:00,146,157
�����w�O,��������,2022/7/22,11:00,154,182
�����w�O,��������,2022/7/22,12:00,238,231
�����w�O,��������,2022/7/22,13:00,181,155
�����w�O,��������,2022/7/22,14:00,174,138
�����w�O,��������,2022/7/22,15:00,180,156
�����w�O,��������,2022/7/22,16:00,220,168
�����w�O,��������,2022/7/22,17:00,277,195
�����w�O,��������,2022/7/22,18:00,222,228
�����w�O,��������,2022/7/22,19:00,168,203
�����w�O,��������,2022/7/22,20:00,97,107
�����w�O,��������,2022/7/22,21:00,97,71
�����w�O,��������,2022/7/22,22:00,65,39
�����w�O,��������,2022/7/22,23:00,50,26
�����w�O,��������,2022/7/23,0:00,14,7
�����w�O,��������,2022/7/23,1:00,4,1
�����w�O,��������,2022/7/23,2:00,0,0
�����w�O,��������,2022/7/23,3:00,2,2
�����w�O,��������,2022/7/23,4:00,7,7
�����w�O,��������,2022/7/23,5:00,20,8
�����w�O,��������,2022/7/23,6:00,40,42
�����w�O,��������,2022/7/23,7:00,92,104
�����w�O,��������,2022/7/23,8:00,116,158
�����w�O,��������,2022/7/23,9:00,160,228
�����w�O,��������,2022/7/23,10:00,197,270
�����w�O,��������,2022/7/23,11:00,223,281
�����w�O,��������,2022/7/23,12:00,242,273
�����w�O,��������,2022/7/23,13:00,239,221
�����w�O,��������,2022/7/23,14:00,229,227
�����w�O,��������,2022/7/23,15:00,319,144
�����w�O,��������,2022/7/23,16:00,249,192
�����w�O,��������,2022/7/23,17:00,274,218
�����w�O,��������,2022/7/23,18:00,251,229
�����w�O,��������,2022/7/23,19:00,185,203
�����w�O,��������,2022/7/23,20:00,165,117
�����w�O,��������,2022/7/23,21:00,150,120
�����w�O,��������,2022/7/23,22:00,93,54
�����w�O,��������,2022/7/23,23:00,60,30
�����w�O,��������,2022/7/24,0:00,6,1
�����w�O,��������,2022/7/24,1:00,8,0
�����w�O,��������,2022/7/24,2:00,2,1
�����w�O,��������,2022/7/24,3:00,1,1
�����w�O,��������,2022/7/24,4:00,5,2
�����w�O,��������,2022/7/24,5:00,13,19
�����w�O,��������,2022/7/24,6:00,31,30
�����w�O,��������,2022/7/24,7:00,89,84
�����w�O,��������,2022/7/24,8:00,123,142
�����w�O,��������,2022/7/24,9:00,119,183
�����w�O,��������,2022/7/24,10:00,170,265
�����w�O,��������,2022/7/24,11:00,194,281
�����w�O,��������,2022/7/24,12:00,227,241
�����w�O,��������,2022/7/24,13:00,252,207
�����w�O,��������,2022/7/24,14:00,329,266
�����w�O,��������,2022/7/24,15:00,268,176
�����w�O,��������,2022/7/24,16:00,262,215
�����w�O,��������,2022/7/24,17:00,236,177
�����w�O,��������,2022/7/24,18:00,181,154
�����w�O,��������,2022/7/24,19:00,98,117
�����w�O,��������,2022/7/24,20:00,89,78
�����w�O,��������,2022/7/24,21:00,73,59
�����w�O,��������,2022/7/24,22:00,43,34
�����w�O,��������,2022/7/24,23:00,16,7
�����w�O,��������,2022/7/25,0:00,8,3
�����w�O,��������,2022/7/25,1:00,4,0
�����w�O,��������,2022/7/25,2:00,1,1
�����w�O,��������,2022/7/25,3:00,0,0
�����w�O,��������,2022/7/25,4:00,2,0
�����w�O,��������,2022/7/25,5:00,13,20
�����w�O,��������,2022/7/25,6:00,78,58
�����w�O,��������,2022/7/25,7:00,139,231
�����w�O,��������,2022/7/25,8:00,122,221
�����w�O,��������,2022/7/25,9:00,110,142